Time,TemperatureF,DewpointF,PressureIn,WindDirection,WindDirectionDegrees,WindSpeedMPH,WindSpeedGustMPH,Humidity,HourlyPrecipIn,Conditions,Clouds,dailyrainin,SoftwareType,DateUTC
2015-09-05 00:04:00,78.0,73.0,-100.00,SE,140,6.0,9.0,86,-99.99,,,-99.99,,2015-09-05 05:04:00,
2015-09-05 00:13:00,77.0,73.0,-100.00,SE,135,7.0,8.0,86,-99.99,,,-99.99,,2015-09-05 05:13:00,
2015-09-05 00:23:00,77.0,73.0,-100.00,SE,135,7.0,8.0,88,-99.99,,,-99.99,,2015-09-05 05:23:00,
2015-09-05 00:33:00,76.0,73.0,-100.00,SE,135,7.0,9.0,88,-99.99,,,-99.99,,2015-09-05 05:33:00,
2015-09-05 00:53:00,76.0,73.0,-100.00,SSE,150,5.0,8.0,88,-99.99,,,-99.99,,2015-09-05 05:53:00,
2015-09-05 01:04:00,76.0,73.0,-100.00,SE,135,6.0,8.0,88,-99.99,,,-99.99,,2015-09-05 06:04:00,
2015-09-05 01:13:00,76.0,73.0,-100.00,SE,140,6.0,7.0,88,-99.99,,,-99.99,,2015-09-05 06:13:00,
2015-09-05 01:23:00,76.0,72.0,-100.00,SE,135,5.0,7.0,88,-99.99,,,-99.99,,2015-09-05 06:23:00,
2015-09-05 01:33:00,76.0,72.0,-100.00,SE,130,4.0,6.0,88,-99.99,,,-99.99,,2015-09-05 06:33:00,
2015-09-05 01:44:00,76.0,72.0,-100.00,SE,145,6.0,7.0,89,-99.99,,,-99.99,,2015-09-05 06:44:00,
2015-09-05 02:03:00,75.0,72.0,-100.00,SE,140,4.0,7.0,89,-99.99,,,-99.99,,2015-09-05 07:03:00,
2015-09-05 02:13:00,75.0,72.0,-100.00,SE,140,4.0,6.0,89,-99.99,,,-99.99,,2015-09-05 07:13:00,
2015-09-05 02:23:00,75.0,72.0,-100.00,SSE,155,2.0,5.0,89,-99.99,,,-99.99,,2015-09-05 07:23:00,
2015-09-05 02:43:00,75.0,72.0,-100.00,SE,145,3.0,4.0,90,-99.99,,,-99.99,,2015-09-05 07:43:00,
2015-09-05 02:53:00,74.0,71.0,-100.00,SE,135,4.0,4.0,90,-99.99,,,-99.99,,2015-09-05 07:53:00,
2015-09-05 03:03:00,74.0,71.0,-100.00,SSE,150,4.0,6.0,91,-99.99,,,-99.99,,2015-09-05 08:03:00,
2015-09-05 03:12:00,74.0,71.0,-100.00,SSE,150,5.0,7.0,92,-99.99,,,-99.99,,2015-09-05 08:12:00,
2015-09-05 03:23:00,74.0,71.0,-100.00,SSE,160,6.0,7.0,92,-99.99,,,-99.99,,2015-09-05 08:23:00,
2015-09-05 03:33:00,74.0,71.0,-100.00,SSE,165,6.0,7.0,92,-99.99,,,-99.99,,2015-09-05 08:33:00,
2015-09-05 03:43:00,74.0,71.0,-100.00,South,170,6.0,9.0,92,-99.99,,,-99.99,,2015-09-05 08:43:00,
2015-09-05 03:53:00,74.0,71.0,-100.00,South,175,4.0,7.0,92,-99.99,,,-99.99,,2015-09-05 08:53:00,
2015-09-05 04:03:00,74.0,71.0,-100.00,South,180,5.0,7.0,91,-99.99,,,-99.99,,2015-09-05 09:03:00,
2015-09-05 04:12:00,74.0,71.0,-100.00,South,190,6.0,8.0,91,-99.99,,,-99.99,,2015-09-05 09:12:00,
2015-09-05 04:23:00,74.0,71.0,-100.00,South,175,4.0,8.0,90,-99.99,,,-99.99,,2015-09-05 09:23:00,
2015-09-05 04:33:00,74.0,71.0,-100.00,South,190,5.0,7.0,90,-99.99,,,-99.99,,2015-09-05 09:33:00,
2015-09-05 04:44:00,74.0,71.0,-100.00,South,190,5.0,7.0,90,-99.99,,,-99.99,,2015-09-05 09:44:00,
2015-09-05 04:53:00,73.0,70.0,-100.00,South,190,6.0,7.0,90,-99.99,,,-99.99,,2015-09-05 09:53:00,
2015-09-05 05:03:00,73.0,70.0,-100.00,SSW,195,6.0,7.0,91,-99.99,,,-99.99,,2015-09-05 10:03:00,
2015-09-05 05:13:00,73.0,70.0,-100.00,South,180,5.0,7.0,91,-99.99,,,-99.99,,2015-09-05 10:13:00,
2015-09-05 05:23:00,73.0,70.0,-100.00,SSE,165,4.0,9.0,91,-99.99,,,-99.99,,2015-09-05 10:23:00,
2015-09-05 05:33:00,73.0,70.0,-100.00,SSE,155,6.0,8.0,91,-99.99,,,-99.99,,2015-09-05 10:33:00,
2015-09-05 05:43:00,73.0,70.0,-100.00,SSE,165,5.0,8.0,91,-99.99,,,-99.99,,2015-09-05 10:43:00,
2015-09-05 05:54:00,73.0,70.0,-100.00,SSE,165,5.0,7.0,91,-99.99,,,-99.99,,2015-09-05 10:54:00,
2015-09-05 06:03:00,72.0,70.0,-100.00,SSE,155,5.0,8.0,91,-99.99,,,-99.99,,2015-09-05 11:03:00,
2015-09-05 06:13:00,72.0,70.0,-100.00,SSE,150,4.0,7.0,92,-99.99,,,-99.99,,2015-09-05 11:13:00,
2015-09-05 06:23:00,72.0,70.0,-100.00,SSE,165,4.0,6.0,92,-99.99,,,-99.99,,2015-09-05 11:23:00,
2015-09-05 06:34:00,72.0,70.0,-100.00,SSE,155,4.0,7.0,92,-99.99,,,-99.99,,2015-09-05 11:34:00,
2015-09-05 06:44:00,72.0,70.0,-100.00,SSE,160,5.0,7.0,92,-99.99,,,-99.99,,2015-09-05 11:44:00,
2015-09-05 06:54:00,72.0,70.0,-100.00,SSE,155,4.0,6.0,92,-99.99,,,-99.99,,2015-09-05 11:54:00,
2015-09-05 07:03:00,72.0,70.0,-100.00,SSE,150,4.0,6.0,92,-99.99,,,-99.99,,2015-09-05 12:03:00,
2015-09-05 07:13:00,72.0,70.0,-100.00,SSE,165,4.0,5.0,92,-99.99,,,-99.99,,2015-09-05 12:13:00,
2015-09-05 07:23:00,72.0,70.0,-100.00,SE,145,4.0,6.0,92,-99.99,,,-99.99,,2015-09-05 12:23:00,
2015-09-05 07:34:00,73.0,71.0,-100.00,SE,145,4.0,7.0,92,-99.99,,,-99.99,,2015-09-05 12:34:00,
2015-09-05 07:44:00,73.0,71.0,-100.00,SE,145,4.0,6.0,92,-99.99,,,-99.99,,2015-09-05 12:44:00,
2015-09-05 07:53:00,73.0,71.0,-100.00,SE,145,6.0,7.0,92,-99.99,,,-99.99,,2015-09-05 12:53:00,
2015-09-05 08:03:00,73.0,71.0,-100.00,SSE,160,4.0,7.0,92,-99.99,,,-99.99,,2015-09-05 13:03:00,
2015-09-05 08:13:00,74.0,71.0,-100.00,SSE,155,4.0,7.0,92,-99.99,,,-99.99,,2015-09-05 13:13:00,
2015-09-05 08:23:00,74.0,71.0,-100.00,SSE,155,6.0,7.0,92,-99.99,,,-99.99,,2015-09-05 13:23:00,
2015-09-05 08:34:00,74.0,71.0,-100.00,SSE,150,6.0,7.0,92,-99.99,,,-99.99,,2015-09-05 13:34:00,
2015-09-05 08:43:00,74.0,71.0,-100.00,SSE,160,5.0,9.0,92,-99.99,,,-99.99,,2015-09-05 13:43:00,
2015-09-05 08:53:00,74.0,71.0,-100.00,SSE,160,6.0,9.0,91,-99.99,,,-99.99,,2015-09-05 13:53:00,
2015-09-05 09:03:00,75.0,72.0,-100.00,SSE,160,7.0,11.0,89,-99.99,,,-99.99,,2015-09-05 14:03:00,
2015-09-05 09:12:00,76.0,72.0,-100.00,South,170,7.0,11.0,86,-99.99,,,-99.99,,2015-09-05 14:12:00,
2015-09-05 09:23:00,77.0,71.0,-100.00,South,170,6.0,12.0,82,-99.99,,,-99.99,,2015-09-05 14:23:00,
2015-09-05 09:33:00,79.0,72.0,-100.00,South,190,6.0,11.0,80,-99.99,,,-99.99,,2015-09-05 14:33:00,
2015-09-05 09:43:00,80.0,72.0,-100.00,South,180,7.0,12.0,77,-99.99,,,-99.99,,2015-09-05 14:43:00,
2015-09-05 09:53:00,81.0,72.0,-100.00,SSE,165,4.0,9.0,76,-99.99,,,-99.99,,2015-09-05 14:53:00,
2015-09-05 10:03:00,81.0,72.0,-100.00,South,175,6.0,13.0,74,-99.99,,,-99.99,,2015-09-05 15:03:00,
2015-09-05 10:13:00,81.0,72.0,-100.00,South,175,6.0,10.0,74,-99.99,,,-99.99,,2015-09-05 15:13:00,
2015-09-05 10:23:00,82.0,72.0,-100.00,SSW,200,7.0,10.0,72,-99.99,,,-99.99,,2015-09-05 15:23:00,
2015-09-05 10:33:00,82.0,72.0,-100.00,SSW,200,8.0,11.0,71,-99.99,,,-99.99,,2015-09-05 15:33:00,
2015-09-05 10:44:00,82.0,72.0,-100.00,SSW,210,10.0,13.0,71,-99.99,,,-99.99,,2015-09-05 15:44:00,